Weather History for Prestonsburg, KY

Change the Weather History Date:

Sunday, October 21, 2012

  Actual Average (KJKL) Record (KJKL)
Temperature  
Mean Temperature 53 °F 57 °F  
Max Temperature 65 °F 67 °F 83 °F (2007)
Min Temperature 42 °F 47 °F 33 °F (2006)
Degree Days  
Heating Degree Days 12 9  
Month to date heating degree days 142  
Since 1 July heating degree days 194  
Cooling Degree Days 0 1  
Month to date cooling degree days 27  
Year to date cooling degree days 1148  
Growing Degree Days 3 (Base 50)    
Moisture  
Dew Point 43 °F    
Average Humidity 72    
Maximum Humidity 99    
Minimum Humidity 47    
Precipitation  
Precipitation 0.00 in 0.10 in 1.87 in (1985)
Month to date precipitation 2.09  
Year to date precipitation 39.10  
Snow  
Snow - 0.00 in - ()
Month to date snowfall 0.0  
Since 1 July snowfall 0.0  
Since 1 September snowfall 0.0  
Snow Depth -    
Sea Level Pressure  
Sea Level Pressure 30.17 in    
Wind  
Wind Speed 1 mph ()    
Max Wind Speed 5 mph    
Max Gust Speed -    
Visibility 9.9 miles    
Events      
T = Trace of Precipitation, MM = Missing Value Source: Averaged Metar Reports

Daily Weather History Graph

Daily Weather History Graph

Search for Another Location

Airport:

Trip Planner

Search our weather history database for the weather conditions in past years. The results will help you decide how hot, cold, wet, or windy it might be!

Date:

Astronomy

Oct. 21, 2012 Rise Set
Actual Time 7:45 AM EDT 6:44 PM EDT
Civil Twilight 7:18 AM EDT 7:11 PM EDT
Nautical Twilight 6:47 AM EDT 7:41 PM EDT
Astronomical Twilight 6:17 AM EDT 8:11 PM EDT
Moon 2:03 PM EDT (10/21) No Moon Set
Length of Visible Light 11h 52m
Length of Day
10h 59m
Waxing Crescent, 45% of the Moon is Illuminated
Oct 21
Waxing Crescent
Oct 21
First Quarter
Oct 29
Full
Nov 6
Last Quarter
Nov 13
New

Hourly Weather History & Observations

Time (EDT) Temp. Windchill Dew Point Humidity Pressure Visibility Wind Dir Wind Speed Gust Speed Precip Events Conditions
12:15 AM 48.2 °F - 41.0 °F 76% 30.07 in 10.0 mi Calm Calm - N/A   Mostly Cloudy
12:35 AM 47.1 °F - 40.6 °F 78% 30.07 in 10.0 mi SSW 3.5 mph - N/A   Mostly Cloudy
12:55 AM 45.7 °F - 41.0 °F 84% 30.08 in 10.0 mi Calm Calm - N/A   Mostly Cloudy
1:15 AM 46.4 °F - 40.6 °F 80% 30.08 in 10.0 mi Calm Calm - N/A   Mostly Cloudy
1:35 AM 45.3 °F - 40.8 °F 84% 30.09 in 10.0 mi Calm Calm - N/A   Overcast
1:55 AM 45.1 °F - 40.8 °F 85% 30.09 in 10.0 mi Calm Calm - N/A   Mostly Cloudy
2:15 AM 43.9 °F - 41.0 °F 90% 30.09 in 10.0 mi Calm Calm - N/A   Mostly Cloudy
2:35 AM 44.4 °F - 41.2 °F 88% 30.09 in 10.0 mi Calm Calm - N/A   Overcast
2:55 AM 43.7 °F - 41.5 °F 92% 30.10 in 10.0 mi Calm Calm - N/A   Overcast
3:15 AM 45.5 °F 44.2 °F 41.5 °F 86% 30.10 in 10.0 mi SW 3.5 mph - N/A   Overcast
3:35 AM 44.8 °F - 41.9 °F 90% 30.11 in 10.0 mi Calm Calm - N/A   Overcast
3:55 AM 45.0 °F - 42.3 °F 90% 30.12 in 10.0 mi Calm Calm - N/A   Overcast
4:15 AM 45.7 °F - 42.4 °F 88% 30.13 in 10.0 mi Calm Calm - N/A   Overcast
4:35 AM 46.4 °F - 42.4 °F 86% 30.13 in 10.0 mi Calm Calm - N/A   Overcast
5:15 AM 44.6 °F - 42.4 °F 92% 30.13 in 10.0 mi Calm Calm - N/A   Overcast
5:35 AM 44.6 °F - 42.8 °F 93% 30.14 in 10.0 mi Calm Calm - N/A   Overcast
5:55 AM 44.2 °F - 42.8 °F 95% 30.15 in 10.0 mi Calm Calm - N/A   Overcast
6:15 AM 44.8 °F - 43.0 °F 93% 30.15 in 10.0 mi Calm Calm - N/A   Overcast
6:35 AM 44.8 °F - 43.0 °F 93% 30.17 in 10.0 mi Calm Calm - N/A   Overcast
6:55 AM 44.6 °F - 42.6 °F 93% 30.17 in 10.0 mi Calm Calm - N/A   Mostly Cloudy
7:15 AM 43.0 °F - 42.1 °F 97% 30.18 in 10.0 mi Calm Calm - N/A   Scattered Clouds
7:35 AM 42.6 °F - 42.1 °F 98% 30.19 in 10.0 mi Calm Calm - N/A   Scattered Clouds
7:55 AM 43.0 °F - 42.8 °F 99% 30.19 in 10.0 mi Calm Calm - N/A   Overcast
8:15 AM 43.2 °F 41.5 °F 42.1 °F 96% 30.19 in 7.0 mi ESE 3.5 mph - N/A   Mostly Cloudy
8:35 AM 42.8 °F - 42.4 °F 99% 30.20 in 7.0 mi Calm Calm - N/A   Clear
8:55 AM 45.5 °F 44.2 °F 43.3 °F 92% 30.20 in 10.0 mi South 3.5 mph - N/A   Clear
9:15 AM 47.7 °F - 43.7 °F 86% 30.21 in 10.0 mi South 3.5 mph - N/A   Clear
9:35 AM 49.3 °F - 43.2 °F 79% 30.22 in 10.0 mi South 4.6 mph - N/A   Clear
9:55 AM 50.7 °F - 43.0 °F 75% 30.22 in 10.0 mi South 3.5 mph - N/A   Clear
10:15 AM 52.5 °F - 42.6 °F 69% 30.23 in 10.0 mi SSE 4.6 mph - N/A   Scattered Clouds
10:35 AM 53.1 °F - 43.5 °F 70% 30.23 in 10.0 mi SW 3.5 mph - N/A   Mostly Cloudy
10:55 AM 54.5 °F - 43.5 °F 66% 30.23 in 10.0 mi SSW 3.5 mph - N/A   Scattered Clouds
11:15 AM 54.9 °F - 43.3 °F 65% 30.23 in 10.0 mi South 3.5 mph - N/A   Clear
11:35 AM 56.3 °F - 42.8 °F 61% 30.22 in 10.0 mi South 3.5 mph - N/A   Clear
11:55 AM 56.7 °F - 42.4 °F 59% 30.22 in 10.0 mi SSW 3.5 mph - N/A   Clear
12:15 PM 57.7 °F - 43.2 °F 58% 30.22 in 10.0 mi Calm Calm - N/A   Clear
12:35 PM 58.3 °F - 42.8 °F 56% 30.22 in 10.0 mi Calm Calm - N/A   Clear
1:15 PM 59.7 °F - 42.6 °F 53% 30.21 in 10.0 mi SW 4.6 mph - N/A   Clear
1:35 PM 61.0 °F - 42.8 °F 51% 30.20 in 10.0 mi Calm Calm - N/A   Clear
1:55 PM 60.8 °F - 42.1 °F 50% 30.19 in 10.0 mi Calm Calm - N/A   Clear
2:15 PM 62.1 °F - 43.2 °F 50% 30.19 in 10.0 mi Calm Calm - N/A   Clear
2:35 PM 62.6 °F - 43.9 °F 50% 30.18 in 10.0 mi Calm Calm - N/A   Clear
2:55 PM 63.1 °F - 43.5 °F 49% 30.18 in 10.0 mi South 3.5 mph - N/A   Clear
3:15 PM 63.9 °F - 43.7 °F 48% 30.18 in 10.0 mi SSW 4.6 mph - N/A   Clear
3:35 PM 63.7 °F - 44.1 °F 49% 30.17 in 10.0 mi SW 3.5 mph - N/A   Clear
3:55 PM 64.6 °F - 45.0 °F 49% 30.17 in 10.0 mi Calm Calm - N/A   Clear
4:15 PM 64.9 °F - 44.8 °F 48% 30.16 in 10.0 mi West 4.6 mph - N/A   Clear
4:35 PM 64.4 °F - 43.9 °F 47% 30.16 in 10.0 mi Calm Calm - N/A   Clear
4:55 PM 64.6 °F - 44.4 °F 48% 30.16 in 10.0 mi Calm Calm - N/A   Clear
5:15 PM 64.6 °F - 44.1 °F 47% 30.16 in 10.0 mi Calm Calm - N/A   Clear
5:35 PM 64.6 °F - 44.2 °F 48% 30.16 in 10.0 mi Calm Calm - N/A   Clear
5:55 PM 64.2 °F - 45.3 °F 50% 30.16 in 10.0 mi East 3.5 mph - N/A   Clear
6:15 PM 63.3 °F - 44.4 °F 50% 30.16 in 10.0 mi Calm Calm - N/A   Clear
6:35 PM 62.8 °F - 43.7 °F 50% 30.16 in 10.0 mi Calm Calm - N/A   Clear
6:55 PM 61.3 °F - 44.1 °F 53% 30.16 in 10.0 mi Calm Calm - N/A   Clear
7:15 PM 59.9 °F - 44.1 °F 56% 30.17 in 10.0 mi Calm Calm - N/A   Clear
7:35 PM 58.5 °F - 44.2 °F 59% 30.17 in 10.0 mi Calm Calm - N/A   Clear
7:55 PM 57.6 °F - 44.6 °F 62% 30.17 in 10.0 mi Calm Calm - N/A   Clear
8:15 PM 56.8 °F - 45.3 °F 65% 30.18 in 10.0 mi Calm Calm - N/A   Clear
8:35 PM 55.8 °F - 45.5 °F 68% 30.18 in 10.0 mi Calm Calm - N/A   Clear
8:55 PM 53.6 °F - 46.0 °F 76% 30.19 in 10.0 mi SE 3.5 mph - N/A   Clear
9:15 PM 55.0 °F - 45.5 °F 70% 30.19 in 10.0 mi Calm Calm - N/A   Clear
9:35 PM 54.0 °F - 45.0 °F 72% 30.19 in 10.0 mi ESE 3.5 mph - N/A   Clear
9:55 PM 53.4 °F - 45.5 °F 75% 30.19 in 10.0 mi Calm Calm - N/A   Clear
10:35 PM 51.8 °F - 45.3 °F 79% 30.19 in 10.0 mi ESE 3.5 mph - N/A   Clear
10:55 PM 53.6 °F - 44.4 °F 71% 30.19 in 10.0 mi Calm Calm - N/A   Clear
11:15 PM 53.8 °F - 44.4 °F 71% 30.20 in 10.0 mi Calm Calm - N/A   Clear
11:35 PM 54.9 °F - 44.4 °F 68% 30.20 in 10.0 mi South 3.5 mph - N/A   Clear
11:55 PM 52.9 °F - 44.4 °F 73% 30.19 in 10.0 mi Calm Calm - N/A   Clear